Weather History for Abilene Dyess, TX

Change the Weather History Date:

Monday, November 5, 2012

  Actual Average Record
Temperature  
Mean Temperature 60 °F -  
Max Temperature 74 °F 66 °F 89 °F (2007)
Min Temperature 46 °F 46 °F 34 °F (2010)
Degree Days  
Heating Degree Days 4    
Growing Degree Days 10 (Base 50)    
Moisture  
Dew Point 40 °F    
Average Humidity 54    
Maximum Humidity 88    
Minimum Humidity 24    
Precipitation  
Precipitation 0.00 in - - ()
Sea Level Pressure  
Sea Level Pressure 30.08 in    
Wind  
Wind Speed 6 mph (North)    
Max Wind Speed 16 mph    
Max Gust Speed -    
Visibility 10 miles    
Events      
Averages and records for this station are not official NWS values.
T = Trace of Precipitation, MM = Missing Value Source: NWS Daily Summary

Daily Weather History Graph

Daily Weather History Graph

Search for Another Location

Airport:

Trip Planner

Search our weather history database for the weather conditions in past years. The results will help you decide how hot, cold, wet, or windy it might be!

Date:

Astronomy

Nov. 05, 2012 Rise Set
Actual Time 7:00 AM CST 5:45 PM CST
Civil Twilight 6:34 AM CST 6:10 PM CST
Nautical Twilight 6:05 AM CST 6:39 PM CST
Astronomical Twilight 5:36 AM CST 7:08 PM CST
Moon 11:23 PM CST (11/5) 12:20 PM CST (11/5)
Length of Visible Light 11h 35m
Length of Day
10h 44m
Waning Gibbous, 62% of the Moon is Illuminated
Nov 5
Waning Gibbous
Nov 6
Last Quarter
Nov 13
New
Nov 20
First Quarter
Nov 28
Full

Hourly Weather History & Observations

Time (CST) Temp. Windchill Dew Point Humidity Pressure Visibility Wind Dir Wind Speed Gust Speed Precip Events Conditions
12:55 AM 51.1 °F - 45.0 °F 80% 30.05 in 10.0 mi Calm Calm - N/A   Clear
1:55 AM 55.2 °F - 47.8 °F 76% 30.04 in 10.0 mi Calm Calm - N/A   Clear
2:55 AM 50.4 °F - 45.1 °F 82% 30.03 in 10.0 mi Calm Calm - N/A   Clear
3:55 AM 49.8 °F - 46.0 °F 87% 30.03 in 10.0 mi North 3.5 mph - N/A   Clear
4:55 AM 49.5 °F - 45.7 °F 87% 30.04 in 10.0 mi NNW 5.8 mph - N/A   Clear
5:55 AM 48.7 °F - 43.5 °F 82% 30.06 in 10.0 mi West 4.6 mph - N/A   Clear
6:55 AM 49.1 °F - 45.7 °F 88% 30.07 in 10.0 mi WSW 4.6 mph - N/A   Clear
7:55 AM 55.4 °F - 48.4 °F 77% 30.09 in 10.0 mi NW 11.5 mph - N/A   Clear
8:55 AM 57.6 °F - 44.2 °F 61% 30.13 in 10.0 mi NNW 13.8 mph - N/A   Clear
9:55 AM 60.8 °F - 45.0 °F 56% 30.14 in 10.0 mi North 11.5 mph - N/A   Clear
10:55 AM 66.4 °F - 44.6 °F 45% 30.13 in 10.0 mi North 12.7 mph - N/A   Clear
11:55 AM 70.7 °F - 40.6 °F 34% 30.11 in 10.0 mi NE 16.1 mph - N/A   Clear
12:55 PM 73.9 °F - 40.1 °F 29% 30.07 in 10.0 mi NE 15.0 mph - N/A   Clear
1:55 PM 73.6 °F - 39.0 °F 29% 30.06 in 10.0 mi NNE 15.0 mph - N/A   Clear
2:55 PM 74.1 °F - 35.1 °F 24% 30.06 in 10.0 mi North 11.5 mph - N/A   Clear
3:52 PM 73.4 °F - 35.6 °F 25% 30.06 in 10.0 mi NE 11.5 mph - N/A   Clear
3:55 PM 73.4 °F - 35.4 °F 25% 30.06 in 10.0 mi NE 13.8 mph - N/A   Clear
4:06 PM 73.4 °F - 35.6 °F 25% 30.06 in 10.0 mi NE 12.7 mph - N/A   Clear
4:55 PM 72.0 °F - 34.9 °F 26% 30.06 in 10.0 mi NE 12.7 mph - N/A   Clear
5:55 PM 63.9 °F - 36.3 °F 36% 30.08 in 10.0 mi NE 4.6 mph - N/A   Clear
6:55 PM 57.2 °F - 36.5 °F 46% 30.10 in 10.0 mi Calm Calm - N/A   Clear
7:55 PM 52.2 °F - 32.9 °F 48% 30.11 in 10.0 mi Calm Calm - N/A   Clear
8:55 PM 50.4 °F - 36.3 °F 59% 30.13 in 10.0 mi Calm Calm - N/A   Clear
9:55 PM 47.7 °F - 35.2 °F 62% 30.12 in 10.0 mi SW 6.9 mph - N/A   Clear
10:55 PM 48.2 °F - 33.8 °F 58% 30.12 in 10.0 mi WSW 3.5 mph - N/A   Clear
11:55 PM 46.2 °F 45.0 °F 35.2 °F 66% 30.12 in 10.0 mi SW 3.5 mph - N/A   Clear